Time,TemperatureF,DewpointF,PressureIn,WindDirection,WindDirectionDegrees,WindSpeedMPH,WindSpeedGustMPH,Humidity,HourlyPrecipIn,Conditions,Clouds,dailyrainin,SoftwareType,DateUTC
2013-01-05 11:21:00,31.8,23.1,30.29,SE,135,0.0,0.0,70,0.00,,,0.00,WUHU216HW,2013-01-05 16:21:00,
2013-01-05 11:26:00,31.8,22.8,30.29,SSE,158,3.5,3.5,69,0.00,,,0.00,WUHU216HW,2013-01-05 16:26:00,
2013-01-05 11:31:00,32.5,23.5,30.29,SSE,158,3.8,4.4,69,0.00,,,0.00,WUHU216HW,2013-01-05 16:31:00,
2013-01-05 11:36:00,32.9,23.4,30.29,SSW,203,6.7,6.7,68,0.00,,,0.00,WUHU216HW,2013-01-05 16:36:00,
2013-01-05 11:41:00,33.4,23.9,30.29,SE,135,2.0,6.7,68,0.00,,,0.00,WUHU216HW,2013-01-05 16:41:00,
2013-01-05 11:46:00,33.2,23.7,30.29,SSE,158,2.9,6.7,68,0.00,,,0.00,WUHU216HW,2013-01-05 16:46:00,
2013-01-05 11:51:00,32.9,23.0,30.29,South,180,5.1,5.1,67,0.00,,,0.00,WUHU216HW,2013-01-05 16:51:00,
2013-01-05 11:56:00,32.9,23.0,30.29,South,180,5.1,5.1,67,0.00,,,0.00,WUHU216HW,2013-01-05 16:56:00,
2013-01-05 12:01:00,32.5,23.1,30.28,SSE,158,2.6,5.1,68,0.00,,,0.00,WUHU216HW,2013-01-05 17:01:00,
2013-01-05 12:06:00,32.1,22.8,30.28,South,180,5.3,5.3,68,0.00,,,0.00,WUHU216HW,2013-01-05 17:06:00,
2013-01-05 12:11:00,31.8,22.4,30.27,SE,135,3.5,5.3,68,0.00,,,0.00,WUHU216HW,2013-01-05 17:11:00,
2013-01-05 12:16:00,32.0,23.0,30.27,SSE,158,3.5,5.3,69,0.00,,,0.00,WUHU216HW,2013-01-05 17:16:00,
2013-01-05 12:21:00,32.0,23.0,30.26,SSW,203,2.9,3.5,69,0.00,,,0.00,WUHU216HW,2013-01-05 17:21:00,
2013-01-05 12:26:00,32.1,23.1,30.26,SSE,158,1.3,3.5,69,0.00,,,0.00,WUHU216HW,2013-01-05 17:26:00,
2013-01-05 12:31:00,32.5,23.4,30.26,South,180,6.7,6.7,69,0.00,,,0.00,WUHU216HW,2013-01-05 17:31:00,
2013-01-05 12:36:00,32.7,23.6,30.26,South,180,4.4,6.7,69,0.00,,,0.00,WUHU216HW,2013-01-05 17:36:00,
2013-01-05 12:41:00,32.7,23.6,30.26,South,180,4.4,6.7,69,0.00,,,0.00,WUHU216HW,2013-01-05 17:41:00,
2013-01-05 12:46:00,32.7,23.6,30.25,South,180,4.4,4.4,69,0.00,,,0.00,WUHU216HW,2013-01-05 17:46:00,
2013-01-05 13:08:00,33.4,24.2,30.24,SE,135,4.0,4.0,69,0.00,,,0.00,WUHU216HW,2013-01-05 18:08:00,
2013-01-05 13:15:00,34.3,24.8,30.23,South,180,2.9,4.0,68,0.00,,,0.00,WUHU216HW,2013-01-05 18:15:00,
2013-01-05 13:20:00,34.5,25.3,30.23,South,180,1.5,4.0,69,0.00,,,0.00,WUHU216HW,2013-01-05 18:20:00,
2013-01-05 13:25:00,34.8,25.3,30.23,SSE,158,4.2,4.4,68,0.00,,,0.00,WUHU216HW,2013-01-05 18:25:00,
2013-01-05 13:30:00,35.2,25.7,30.23,South,180,4.9,4.9,68,0.00,,,0.00,WUHU216HW,2013-01-05 18:30:00,
2013-01-05 13:35:00,35.2,25.3,30.22,South,180,4.6,4.9,67,0.00,,,0.00,WUHU216HW,2013-01-05 18:35:00,
2013-01-05 13:40:00,35.6,25.7,30.21,ESE,113,4.6,6.4,67,0.00,,,0.00,WUHU216HW,2013-01-05 18:40:00,
2013-01-05 13:45:00,35.4,25.5,30.21,SE,135,3.3,6.4,67,0.00,,,0.00,WUHU216HW,2013-01-05 18:45:00,
2013-01-05 13:50:00,35.4,25.5,30.20,SE,135,0.0,4.6,67,0.00,,,0.00,WUHU216HW,2013-01-05 18:50:00,
2013-01-05 13:55:00,35.7,25.8,30.21,SSW,203,6.7,6.7,67,0.00,,,0.00,WUHU216HW,2013-01-05 18:55:00,
2013-01-05 14:00:00,36.1,26.2,30.20,SE,135,0.8,6.7,67,0.00,,,0.00,WUHU216HW,2013-01-05 19:00:00,
2013-01-05 14:05:00,36.5,26.2,30.20,South,180,4.0,6.7,66,0.00,,,0.00,WUHU216HW,2013-01-05 19:05:00,
2013-01-05 14:10:00,37.0,26.7,30.20,South,180,0.0,4.0,66,0.00,,,0.00,WUHU216HW,2013-01-05 19:10:00,
2013-01-05 14:15:00,36.5,25.8,30.20,South,180,3.8,6.9,65,0.00,,,0.00,WUHU216HW,2013-01-05 19:15:00,
2013-01-05 14:20:00,36.3,26.0,30.19,SE,135,4.4,6.9,66,0.00,,,0.00,WUHU216HW,2013-01-05 19:20:00,
2013-01-05 14:25:00,35.9,25.8,30.19,ESE,113,5.1,5.1,66,0.00,,,0.00,WUHU216HW,2013-01-05 19:25:00,
2013-01-05 14:30:00,35.7,25.8,30.19,ESE,113,5.1,5.1,67,0.00,,,0.00,WUHU216HW,2013-01-05 19:30:00,
2013-01-05 14:35:00,35.4,25.5,30.18,SSE,158,4.9,5.1,67,0.00,,,0.00,WUHU216HW,2013-01-05 19:35:00,
2013-01-05 14:40:00,35.2,25.7,30.18,SE,135,3.1,5.1,68,0.00,,,0.00,WUHU216HW,2013-01-05 19:40:00,
2013-01-05 14:45:00,34.8,25.3,30.18,SSE,158,4.0,5.3,68,0.00,,,0.00,WUHU216HW,2013-01-05 19:45:00,
2013-01-05 14:50:00,34.7,25.5,30.18,SE,135,5.1,5.3,69,0.00,,,0.00,WUHU216HW,2013-01-05 19:50:00,
2013-01-05 14:51:00,34.7,25.1,30.18,SSE,158,10.7,10.7,68,0.00,,,0.00,WUHU216HW,2013-01-05 19:51:00,
2013-01-05 14:55:00,34.5,25.3,30.18,South,180,5.3,10.7,69,0.00,,,0.00,WUHU216HW,2013-01-05 19:55:00,
2013-01-05 15:00:00,34.3,25.1,30.18,South,180,4.6,10.7,69,0.00,,,0.00,WUHU216HW,2013-01-05 20:00:00,
2013-01-05 15:05:00,34.3,25.1,30.18,South,180,4.0,5.3,69,0.00,,,0.00,WUHU216HW,2013-01-05 20:05:00,
2013-01-05 15:10:00,34.1,24.9,30.18,SE,135,2.6,11.1,69,0.00,,,0.00,WUHU216HW,2013-01-05 20:10:00,
2013-01-05 15:15:00,33.9,24.8,30.17,SE,135,2.6,11.1,69,0.00,,,0.00,WUHU216HW,2013-01-05 20:15:00,
2013-01-05 15:20:00,33.9,24.8,30.18,SSW,203,8.7,8.7,69,0.00,,,0.00,WUHU216HW,2013-01-05 20:20:00,
2013-01-05 15:25:00,33.9,24.8,30.18,SE,135,2.9,8.7,69,0.00,,,0.00,WUHU216HW,2013-01-05 20:25:00,
2013-01-05 15:30:00,33.8,24.9,30.18,SSE,158,3.1,3.1,70,0.00,,,0.00,WUHU216HW,2013-01-05 20:30:00,
2013-01-05 15:35:00,33.8,24.9,30.18,South,180,5.3,6.7,70,0.00,,,0.00,WUHU216HW,2013-01-05 20:35:00,
2013-01-05 15:40:00,33.8,24.9,30.18,SSE,158,3.1,6.7,70,0.00,,,0.00,WUHU216HW,2013-01-05 20:40:00,
2013-01-05 15:45:00,33.8,25.3,30.18,SSW,203,8.0,8.9,71,0.00,,,0.00,WUHU216HW,2013-01-05 20:45:00,
2013-01-05 15:50:00,33.8,25.3,30.19,South,180,12.3,12.3,71,0.00,,,0.00,WUHU216HW,2013-01-05 20:50:00,
2013-01-05 15:55:00,33.9,25.4,30.19,SSW,203,7.8,12.3,71,0.00,,,0.00,WUHU216HW,2013-01-05 20:55:00,
2013-01-05 16:00:00,33.9,25.4,30.19,South,180,6.0,8.7,71,0.00,,,0.00,WUHU216HW,2013-01-05 21:00:00,
2013-01-05 16:05:00,33.9,25.4,30.19,SW,225,4.9,10.2,71,0.00,,,0.00,WUHU216HW,2013-01-05 21:05:00,
2013-01-05 16:10:00,34.1,25.6,30.19,SSW,203,7.3,10.7,71,0.00,,,0.00,WUHU216HW,2013-01-05 21:10:00,
2013-01-05 16:15:00,34.1,25.6,30.18,South,180,6.0,11.4,71,0.00,,,0.00,WUHU216HW,2013-01-05 21:15:00,
2013-01-05 16:20:00,34.3,25.8,30.18,SSW,203,3.8,11.4,71,0.00,,,0.00,WUHU216HW,2013-01-05 21:20:00,
2013-01-05 16:25:00,34.5,26.0,30.18,SSW,203,8.2,8.2,71,0.00,,,0.00,WUHU216HW,2013-01-05 21:25:00,
2013-01-05 16:30:00,34.5,26.0,30.18,SSW,203,10.5,10.5,71,0.00,,,0.00,WUHU216HW,2013-01-05 21:30:00,
2013-01-05 16:35:00,34.7,26.2,30.18,SSW,203,7.6,10.5,71,0.00,,,0.00,WUHU216HW,2013-01-05 21:35:00,
2013-01-05 16:40:00,34.7,26.2,30.18,SSW,203,14.5,14.5,71,0.00,,,0.00,WUHU216HW,2013-01-05 21:40:00,
2013-01-05 16:45:00,34.7,26.5,30.19,SSW,203,12.7,14.5,72,0.00,,,0.00,WUHU216HW,2013-01-05 21:45:00,
2013-01-05 16:50:00,34.7,26.5,30.18,South,180,8.5,14.5,72,0.00,,,0.00,WUHU216HW,2013-01-05 21:50:00,
2013-01-05 16:55:00,34.7,26.5,30.18,SSW,203,11.8,12.7,72,0.00,,,0.00,WUHU216HW,2013-01-05 21:55:00,
2013-01-05 17:00:00,34.5,26.6,30.18,South,180,11.8,11.8,73,0.00,,,0.00,WUHU216HW,2013-01-05 22:00:00,
2013-01-05 17:05:00,34.3,27.4,30.18,SSW,203,3.5,11.8,76,0.00,,,0.00,WUHU216HW,2013-01-05 22:05:00,
2013-01-05 17:10:00,34.1,27.6,30.18,SSW,203,3.1,7.6,77,0.00,,,0.00,WUHU216HW,2013-01-05 22:10:00,
2013-01-05 17:15:00,33.6,28.0,30.18,SW,225,5.5,8.7,80,0.00,,,0.00,WUHU216HW,2013-01-05 22:15:00,
2013-01-05 17:20:00,33.4,28.1,30.18,SSE,158,6.2,10.9,81,0.00,,,0.00,WUHU216HW,2013-01-05 22:20:00,
2013-01-05 17:25:00,33.0,28.1,30.18,SSW,203,9.8,11.8,82,0.00,,,0.00,WUHU216HW,2013-01-05 22:25:00,
2013-01-05 17:30:00,32.7,28.1,30.18,South,180,7.1,11.8,83,0.00,,,0.00,WUHU216HW,2013-01-05 22:30:00,
2013-01-05 17:35:00,32.7,28.4,30.18,South,180,7.3,7.3,84,0.00,,,0.00,WUHU216HW,2013-01-05 22:35:00,
2013-01-05 17:40:00,32.5,28.2,30.18,South,180,8.2,8.2,84,0.00,,,0.00,WUHU216HW,2013-01-05 22:40:00,
2013-01-05 17:45:00,32.3,28.3,30.18,South,180,3.5,10.2,85,0.00,,,0.00,WUHU216HW,2013-01-05 22:45:00,
2013-01-05 17:50:00,32.3,28.3,30.17,SSW,203,8.0,10.2,85,0.00,,,0.00,WUHU216HW,2013-01-05 22:50:00,
2013-01-05 17:55:00,32.3,28.3,30.18,SSE,158,2.4,8.0,85,0.00,,,0.00,WUHU216HW,2013-01-05 22:55:00,
2013-01-05 18:00:00,32.3,28.3,30.18,SSE,158,2.4,3.8,85,0.00,,,0.00,WUHU216HW,2013-01-05 23:00:00,
2013-01-05 18:05:00,32.3,28.3,30.18,SSE,158,2.4,2.4,85,0.00,,,0.00,WUHU216HW,2013-01-05 23:05:00,